Printer-friendly version

IAU Minor Planet Center

Minor Planet Center

MPEC 2005-G91 : 2005 GZ128

The following Minor Planet Electronic Circular may be linked-to from your own Web pages, but must not otherwise be redistributed electronically.


Read MPEC 2005-G90 Read MPEC 2005-G92


M.P.E.C. 2005-G91                                Issued 2005 Apr. 15, 00:56 UT

     The Minor Planet Electronic Circulars contain information on unusual
         minor planets and routine data on comets.  They are published
   on behalf of Commission 20 of the International Astronomical Union by the
          Minor Planet Center, Smithsonian Astrophysical Observatory,
                          Cambridge, MA 02138, U.S.A.

                  Supported in part by the Brinson Foundation
             Prepared using the Tamkin Foundation Computer Network

                              MPC@CFA.HARVARD.EDU
          URL http://cfa-www.harvard.edu/iau/mpc.html  ISSN 1523-6714

                                  2005 GZ128

Observations:
     K05GC8Z* C2005 04 13.34347 14 03 10.86 -04 47 27.2          19.1   EG091704
     K05GC8Z  C2005 04 13.35418 14 03 08.65 -04 37 47.4          18.9   EG091704
     K05GC8Z  C2005 04 13.36451 14 03 06.47 -04 28 29.2          18.8   EG091704
     K05GC8Z  C2005 04 13.37533 14 03 04.30 -04 18 46.9          18.9   EG091704
     K05GC8Z  C2005 04 14.34972 14 02 15.91 +08 44 08.2          19.2   EG091704
     K05GC8Z  C2005 04 14.34982 14 02 15.92 +08 44 11.2          19.0   EG091704
     K05GC8Z  C2005 04 14.35181 14 02 15.51 +08 45 36.5          19.3   EG091704
     K05GC8Z  C2005 04 14.36224 14 02 13.64 +08 52 57.4          19.0   EG091704
     K05GC8Z  C2005 04 14.36234 14 02 13.61 +08 53 00.8          19.1   EG091704
     K05GC8Z  C2005 04 14.36316 14 02 13.50 +08 53 36.3          19.2   EG091704
     K05GC8Z  C2005 04 14.37266 14 02 11.81 +09 00 16.4          19.2   EG091704
     K05GC8Z  C2005 04 14.37276 14 02 11.83 +09 00 19.8          19.6   EG091704
     K05GC8Z  C2005 04 14.37357 14 02 11.66 +09 00 54.3          19.5   EG091704
     K05GC8Z  C2005 04 14.38388 14 02 09.89 +09 08 07.9          19.4   EG091704
     K05GC8Z  C2005 04 14.38398 14 02 09.91 +09 08 12.5          19.3   EG091704
     K05GC8Z  C2005 04 14.38480 14 02 09.68 +09 08 46.5          19.1   EG091704
     K05GC8Z  C2005 04 14.95838 14 01 58.20 +15 18 11.6                 EG091J95
     K05GC8Z  C2005 04 14.96359 14 01 57.54 +15 21 17.3                 EG091J95
     K05GC8Z  C2005 04 14.96873 14 01 56.94 +15 24 19.9          19.3 R EG091J95

Observer details:
704 Lincoln Laboratory ETS, New Mexico.  Observers M. Blythe, F. Shelly,
    M. Bezpalko, R. Huber, L. Manguso, D. Torres, R. Kracke, M. McCleary,
    H. Stange, A. Milner.  Measurers J. Stuart, R. Sayer, J. Evans, J. Kommers.
    1.0-m f/2.15 reflector + CCD.
J95 Great Shefford.  Observer P. Birtwhistle.  0.30-m f/6.3 Schmidt-Cassegrain
    + CCD.

Orbital elements:
2005 GZ128
Epoch 2005 Mar. 31.0 TT = JDT 2453460.5                 MPC
M 102.79117              (2000.0)            P               Q
n   1.06172272     Peri.  230.70511     +0.29427940     -0.94736952
a   0.9516165      Node   203.14155     +0.94550304     +0.30782429
e   0.1360553      Incl.   18.70859     +0.13936871     -0.08794994
P   0.93           H   25.7           G   0.15
From 19 observations 2005 Apr. 13-14.

Ephemeris:
2005 GZ128               a,e,i = 0.95, 0.14, 19                  q = 0.8221
Date    TT    R. A. (2000) Decl.     Delta      r     Elong.  Phase     V
2005 04 10    14 08.44   -56 45.7    0.0228   1.017   130.0    49.0    19.4
2005 04 11    14 06.34   -43 01.0    0.0203   1.019   143.7    35.7    18.7
2005 04 12    14 04.79   -26 41.8    0.0193   1.020   159.2    20.4    18.2
2005 04 13    14 03.59   -10 02.3    0.0199   1.022   170.5     9.3    17.9
2005 04 14    14 02.63   +04 27.1    0.0221   1.024   163.9    15.8    18.3
2005 04 15    14 01.84   +15 45.8    0.0254   1.026   153.5    25.8    19.0
2005 04 16    14 01.19   +24 12.1    0.0294   1.028   145.2    33.8    19.5
2005 04 17    14 00.63   +30 28.4    0.0340   1.030   138.8    39.9    20.0
2005 04 18    14 00.16   +35 11.9    0.0389   1.031   133.9    44.6    20.4
2005 04 19    13 59.75   +38 50.0    0.0439   1.033   130.0    48.2    20.8
2005 04 20    13 59.40   +41 41.0    0.0491   1.035   126.8    51.0    21.1
2005 04 21    13 59.10   +43 57.8    0.0545   1.037   124.2    53.3    21.4
2005 04 22    13 58.83   +45 48.9    0.0598   1.038   122.1    55.1    21.7
2005 04 23    13 58.60   +47 20.4    0.0653   1.040   120.2    56.7    21.9
2005 04 24    13 58.40   +48 36.8    0.0707   1.041   118.6    58.0    22.1
2005 04 25    13 58.23   +49 41.0    0.0762   1.043   117.1    59.1    22.3
2005 04 26    13 58.07   +50 35.6    0.0817   1.044   115.9    60.1    22.5
2005 04 27    13 57.94   +51 22.2    0.0872   1.046   114.7    60.9    22.7
2005 04 28    13 57.83   +52 02.3    0.0928   1.047   113.7    61.7    22.8
2005 04 29    13 57.73   +52 36.8    0.0983   1.049   112.7    62.3    23.0
2005 04 30    13 57.65   +53 06.7    0.104    1.050   111.8    62.9    23.1

Timothy B. Spahr             (C) Copyright 2005 MPC           M.P.E.C. 2005-G91

Read MPEC 2005-G90 Read MPEC 2005-G92


Our Web policy. Index to the CBAT/MPC/ICQ pages.


Valid HTML 4.01!